TimeHST,TemperatureF,Dew PointF,Humidity,Sea Level PressureIn,VisibilityMPH,Wind Direction,Wind SpeedMPH,Gust SpeedMPH,PrecipitationIn,Events,Conditions,WindDirDegrees,DateUTC
12:56 AM,60.6,44.6,56,30.37,12.0,ESE,12.7,19.6,N/A,,Clear,120,2013-12-09 10:56:00
1:56 AM,61.3,41.9,49,30.37,12.0,SE,11.5,20.7,N/A,,Clear,130,2013-12-09 11:56:00
2:56 AM,60.6,44.1,54,30.35,12.0,SE,11.5,18.4,N/A,,Clear,130,2013-12-09 12:56:00
3:56 AM,62.4,41.7,47,30.35,12.0,SE,13.8,23.0,N/A,,Clear,130,2013-12-09 13:56:00
4:56 AM,61.7,34.9,37,30.35,12.0,ESE,8.1,-,N/A,,Clear,120,2013-12-09 14:56:00
5:56 AM,54.3,48.2,80,30.38,12.0,West,3.5,13.8,N/A,,Clear,260,2013-12-09 15:56:00
6:56 AM,48.7,38.7,68,30.39,11.0,ESE,4.6,-,N/A,,Clear,120,2013-12-09 16:56:00
7:56 AM,57.9,50.2,75,30.40,12.0,SSE,11.5,19.6,N/A,,Clear,150,2013-12-09 17:56:00
8:56 AM,64.4,40.1,41,30.41,12.0,SSE,16.1,25.3,N/A,,Clear,150,2013-12-09 18:56:00
9:56 AM,67.6,49.8,53,30.41,12.0,SSE,13.8,24.2,N/A,,Clear,150,2013-12-09 19:56:00
10:56 AM,70.9,44.6,39,30.40,12.0,SSE,13.8,21.9,N/A,,Clear,150,2013-12-09 20:56:00
11:56 AM,69.6,48.9,48,30.39,12.0,WSW,5.8,15.0,N/A,,Partly Cloudy,250,2013-12-09 21:56:00
12:56 PM,70.7,47.8,44,30.35,12.0,SSE,13.8,24.2,N/A,,Clear,150,2013-12-09 22:56:00
1:27 PM,71.6,44.6,38,30.34,12.0,South,15.0,23.0,N/A,,Clear,180,2013-12-09 23:27:00
1:56 PM,73.2,45.1,37,30.32,12.0,SSE,12.7,19.6,N/A,,Clear,160,2013-12-09 23:56:00
2:56 PM,67.1,53.4,61,30.33,9.0,WSW,11.5,21.9,N/A,,Scattered Clouds,250,2013-12-10 00:56:00
3:11 PM,68.0,57.2,68,30.34,9.0,WSW,11.5,19.6,N/A,,Mostly Cloudy,250,2013-12-10 01:11:00
3:21 PM,64.4,57.2,77,30.34,7.0,West,13.8,19.6,N/A,,Mostly Cloudy,260,2013-12-10 01:21:00
3:31 PM,62.6,57.2,82,30.34,7.0,West,15.0,24.2,N/A,,Mostly Cloudy,260,2013-12-10 01:31:00
3:56 PM,61.9,57.0,84,30.35,5.0,WSW,9.2,-,N/A,,Mostly Cloudy,250,2013-12-10 01:56:00
4:26 PM,60.8,57.2,88,30.36,5.0,West,9.2,-,N/A,,Mostly Cloudy,260,2013-12-10 02:26:00
4:31 PM,60.8,57.2,88,30.35,5.0,West,8.1,-,N/A,,Mostly Cloudy,260,2013-12-10 02:31:00
4:56 PM,61.9,56.5,82,30.36,8.0,WSW,5.8,-,N/A,,Mostly Cloudy,250,2013-12-10 02:56:00
5:06 PM,62.6,55.4,77,30.35,8.0,WSW,3.5,-,N/A,,Scattered Clouds,250,2013-12-10 03:06:00
5:56 PM,59.7,55.8,87,30.37,7.0,WSW,4.6,-,N/A,,Scattered Clouds,250,2013-12-10 03:56:00
6:51 PM,57.2,55.4,94,30.39,4.0,West,6.9,-,N/A,,Mostly Cloudy,260,2013-12-10 04:51:00
6:56 PM,57.7,55.9,94,30.39,4.0,West,5.8,-,N/A,,Mostly Cloudy,260,2013-12-10 04:56:00
7:01 PM,57.2,55.4,94,30.40,4.0,West,6.9,-,N/A,,Mostly Cloudy,260,2013-12-10 05:01:00
7:11 PM,57.2,55.4,94,30.40,5.0,WSW,5.8,-,N/A,,Overcast,250,2013-12-10 05:11:00
7:26 PM,57.2,55.4,94,30.40,5.0,WSW,3.5,-,N/A,,Mostly Cloudy,250,2013-12-10 05:26:00
7:51 PM,57.2,55.4,94,30.41,5.0,ESE,1.2,-,N/A,,Mostly Cloudy,120,2013-12-10 05:51:00
7:56 PM,57.7,55.2,91,30.41,5.0,Calm,Calm,-,N/A,,Mostly Cloudy,0,2013-12-10 05:56:00
8:41 PM,55.4,50.0,82,30.42,12.0,SE,6.9,-,N/A,,Scattered Clouds,140,2013-12-10 06:41:00
8:56 PM,54.7,49.3,82,30.42,12.0,ESE,5.8,-,N/A,,Partly Cloudy,120,2013-12-10 06:56:00
9:56 PM,54.5,46.8,75,30.42,12.0,ESE,8.1,-,N/A,,Clear,120,2013-12-10 07:56:00
10:56 PM,53.4,45.7,75,30.41,12.0,ESE,5.8,-,N/A,,Clear,120,2013-12-10 08:56:00
11:56 PM,51.8,44.4,76,30.40,12.0,ESE,4.6,-,N/A,,Clear,120,2013-12-10 09:56:00